Location: Invercargill
(46.4000°S, 168.3500°E)
Time: 14:47:02
(UTC+12:00)

N. Korean satellite - Visible Passes

Search period start: 18 June 2019 00:00
Search period end: 28 June 2019 00:00
Orbit: 455 x 510 km, 97.2° (Epoch: 17 June)

Date Brightness Start Highest point End Pass type
(mag) Time Alt. Az. Time Alt. Az. Time Alt. Az.
18 Jun 9.4 05:17:36 10° NE 05:18:29 16° ENE 05:18:29 16° ENE visible
18 Jun 8.4 06:51:27 10° NW 06:52:47 17° NW 06:52:47 17° NW visible
18 Jun 7.7 18:15:34 15° SE 18:18:02 27° E 18:21:16 10° NNE visible
18 Jun 8.9 19:49:52 19° SSW 19:51:21 25° WSW 19:54:27 10° WNW visible
19 Jun 8.0 06:25:38 10° N 06:27:29 25° NNW 06:27:29 25° NNW visible
19 Jun 8.5 17:50:35 10° SE 17:52:47 15° E 17:54:58 10° NE visible
19 Jun 7.7 19:24:35 25° SSW 19:26:27 45° WSW 19:30:02 10° NW visible
20 Jun 8.2 06:00:20 10° N 06:02:10 28° N 06:02:10 28° N visible
20 Jun 6.6 18:59:17 24° SSE 19:01:29 90° ENE 19:05:12 10° NNW visible
21 Jun 8.9 05:35:27 10° NNE 05:36:51 21° NE 05:36:51 21° NE visible
21 Jun 8.9 07:10:48 10° WNW 07:11:10 11° WNW 07:11:10 11° WNW visible
21 Jun 7.0 18:33:59 19° SSE 18:36:23 44° E 18:39:57 10° N visible
21 Jun 9.4 20:08:18 14° SW 20:09:27 16° WSW 20:11:49 10° WNW visible
22 Jun 9.7 05:11:00 10° NE 05:11:33 13° ENE 05:11:33 13° ENE visible
22 Jun 8.4 06:44:21 10° NNW 06:45:51 19° NW 06:45:51 19° NW visible
22 Jun 7.9 18:08:41 13° SE 18:11:13 23° E 18:14:13 10° NNE visible
22 Jun 8.6 19:42:59 21° SSW 19:44:37 28° WSW 19:47:50 10° NW visible
23 Jun 8.1 06:18:42 10° N 06:20:33 26° NNW 06:20:33 26° NNW visible
23 Jun 8.6 17:44:17 10° ESE 17:45:56 12° E 17:47:33 10° ENE visible
23 Jun 7.3 19:17:41 24° S 19:19:42 54° WSW 19:23:19 10° NNW visible
24 Jun 8.4 05:53:31 10° NNE 05:55:14 26° NNE 05:55:14 26° NNE visible
24 Jun 6.5 18:52:22 22° SSE 18:54:41 75° ENE 18:58:22 10° N visible
24 Jun 9.9 20:26:40 10° SW 20:27:28 11° WSW 20:28:19 10° WSW visible
25 Jun 9.1 05:28:44 10° NE 05:29:55 19° NE 05:29:55 19° NE visible
25 Jun 8.8 07:03:28 10° NW 07:04:14 13° WNW 07:04:14 13° WNW visible
25 Jun 7.2 18:27:03 17° SE 18:29:34 37° E 18:32:59 10° NNE visible
25 Jun 9.2 20:01:21 16° SW 20:02:42 19° WSW 20:05:20 10° WNW visible
26 Jun 9.9 05:04:23 10° ENE 05:04:36 11° ENE 05:04:36 11° ENE visible
26 Jun 8.3 06:37:18 10° NNW 06:38:55 21° NW 06:38:55 21° NW visible
26 Jun 8.1 18:01:42 11° SE 18:04:20 19° E 18:07:04 10° NE visible
26 Jun 8.3 19:36:01 21° SSW 19:37:50 33° WSW 19:41:10 10° NW visible
27 Jun 8.1 06:11:47 10° N 06:13:36 27° N 06:13:36 27° N visible
27 Jun 7.0 19:10:42 23° S 19:12:53 65° WSW 19:16:31 10° NNW visible
